Snowfall_Accumulation
1.4 3.2 6.5 2.1 2.1 2.3 2.9 3.3 3.1 1.9 0.9 1.6 1.3 1.2 0.9 0.7 0.8 0.9 0.8 0.8 0.6 0.4 0.2 0.2 0.1 0.1 0.2 0.1 0.0 0.1 0.1 0.2 0.1 0.1 0.1 0.1 0.1 0.2 0.1 0.1 0.2 0.2 0.2 0.1
3.5 5.4 1.2 0.5 0.8 2.2 3.2 4.5 3.1 1.7 1.0 2.1 2.1 1.7 1.3 1.0 1.2 1.1 1.1 1.1 0.7 0.4 0.3 0.2 0.2 0.2 0.1 0.1 0.1 0.1 0.1 0.2 0.3 0.2 0.1 0.1 0.1 0.2 0.3 0.3 0.2 0.2 0.4 0.3
6.2 2.8 0.7 0.9 2.4 4.0 3.9 4.2 3.4 3.3 1.8 1.5 2.7 3.5 2.1 1.5 1.2 1.0 0.9 1.1 0.9 0.5 0.5 0.2 0.2 0.2 0.3 0.3 0.2 0.2 0.2 0.2 0.3 0.5 0.3 0.1 0.1 0.2 0.4 0.6 0.2 0.4 0.4 0.5
2.9 1.0 0.7 1.7 2.4 3.5 5.3 1.8 2.2 2.8 4.3 5.8 5.5 10.2 3.8 2.3 1.3 1.2 1.0 1.1 0.8 0.6 0.5 0.4 0.3 0.4 0.4 0.4 0.2 0.2 0.2 0.3 0.3 0.3 0.3 0.4 0.3 0.6 0.4 0.7 0.7 0.5 0.3 0.4
4.0 1.1 1.3 2.8 2.1 2.0 3.0 1.2 1.6 2.8 5.6 8.5 4.1 8.5 6.7 2.0 2.3 1.8 1.6 1.4 1.1 0.9 0.8 0.6 0.5 0.6 0.5 0.6 0.5 0.2 0.2 0.3 0.4 0.3 0.7 0.3 0.5 0.6 0.7 0.5 0.7 0.3 0.2 0.4
1.7 0.7 0.9 1.8 0.8 0.9 1.4 1.6 2.3 3.4 8.3 14.6 5.4 7.0 7.4 5.2 5.0 3.4 2.4 1.9 1.5 1.2 1.1 0.8 0.7 0.7 0.7 0.8 0.8 0.4 0.3 0.3 0.3 0.6 0.5 0.6 0.4 0.4 0.5 0.3 0.7 0.9 0.4 0.3
10.0 2.3 1.0 0.8 2.2 1.8 3.0 10.7 20.2 21.0 20.5 11.1 3.5 4.9 7.2 4.3 3.7 3.5 3.1 2.4 2.1 1.7 1.5 1.5 1.4 1.1 1.0 1.1 1.0 1.0 0.9 0.5 0.6 0.7 1.0 1.0 0.7 0.7 0.8 1.0 0.8 1.0 0.7 0.6
14.0 12.2 2.0 1.3 2.1 3.9 4.0 8.1 14.7 14.8 10.3 5.3 3.6 5.3 6.0 3.2 2.6 2.5 2.3 2.1 1.9 1.7 1.7 1.6 1.9 1.4 1.0 1.3 1.4 1.3 1.1 1.1 0.8 0.8 1.1 1.3 1.2 1.0 0.9 1.0 0.7 0.8 1.1 0.8
10.8 10.1 1.3 1.0 1.2 1.9 5.6 7.1 6.1 12.5 9.1 6.6 5.6 5.5 3.9 2.2 2.1 2.1 1.9 1.7 1.7 1.7 1.8 1.8 1.7 1.7 1.4 1.2 1.6 1.8 1.4 1.2 0.9 0.9 1.1 1.3 0.9 1.0 1.0 1.0 1.2 1.0 1.2 0.8
7.5 10.9 2.4 0.6 0.9 1.2 2.3 3.9 9.6 18.0 15.1 9.2 5.7 4.9 5.9 4.0 3.4 3.1 2.7 2.3 2.2 1.9 1.7 1.7 1.9 1.9 1.8 1.8 1.9 1.9 1.6 1.5 1.2 0.9 1.0 1.3 1.3 1.0 0.9 0.9 0.8 0.9 1.1 1.3
3.9 10.7 6.8 3.1 5.4 5.5 5.0 7.7 11.7 14.2 12.4 11.2 7.4 6.3 5.3 4.2 4.0 3.9 3.5 2.9 2.6 2.4 2.1 1.8 1.8 2.0 1.9 1.7 1.8 1.8 1.4 1.3 1.3 1.0 1.0 1.1 1.3 0.9 0.9 0.8 0.8 0.8 0.9 1.1
3.4 9.2 10.0 4.1 1.4 1.4 3.4 6.5 9.9 15.9 11.9 8.9 8.0 6.6 3.0 2.7 3.1 3.0 2.8 2.7 2.6 2.4 2.4 2.3 2.1 2.0 2.0 1.8 1.7 2.1 1.9 1.6 1.3 1.1 1.1 1.0 1.1 0.8 0.9 0.8 0.8 0.8 0.9 0.9
5.8 12.9 14.4 6.8 3.8 2.3 5.9 5.0 5.8 10.2 14.0 11.5 9.6 6.7 2.6 2.1 2.3 2.3 2.4 2.5 2.5 2.4 2.1 2.0 2.0 2.0 1.9 1.9 2.0 2.2 2.4 2.0 2.0 1.2 1.3 1.0 1.0 0.6 0.8 0.8 0.8 0.8 0.9 1.0
5.8 12.9 11.4 9.9 7.7 7.4 7.8 5.2 5.1 11.7 18.6 10.7 6.4 5.3 3.5 2.9 2.7 2.5 2.5 2.5 2.7 2.4 2.1 2.0 2.1 2.1 2.0 2.3 2.2 2.1 2.3 2.6 2.8 1.9 1.9 1.7 2.0 1.5 1.0 1.2 1.1 0.8 0.9 1.1
4.4 12.7 8.1 5.0 2.8 4.6 5.7 5.0 5.0 8.7 9.1 10.2 5.7 4.5 4.2 3.9 3.4 3.2 2.9 2.6 2.4 2.3 2.1 2.0 2.2 2.2 1.8 1.7 1.9 2.2 2.0 2.3 2.7 2.1 1.7 2.0 1.9 1.6 1.7 1.5 1.1 1.0 1.1 1.1
4.1 10.0 7.7 5.5 2.6 3.4 5.0 3.4 3.1 3.9 3.8 4.9 4.5 4.8 3.3 3.1 2.7 2.6 2.8 2.5 2.7 2.7 2.5 2.3 2.2 2.7 2.3 1.7 1.8 2.0 1.9 1.9 2.2 1.9 1.8 1.7 1.7 1.7 1.7 1.8 1.9 1.2 1.2 1.2
4.7 7.9 12.0 8.5 3.3 5.1 8.6 4.0 3.7 3.8 3.7 4.1 5.4 4.6 3.2 2.8 2.9 3.5 3.6 3.2 3.2 3.2 2.9 2.5 2.4 2.7 2.6 2.4 2.3 2.0 2.0 1.8 1.8 1.6 1.7 1.7 1.5 1.4 1.5 1.8 2.0 1.3 1.7 1.4
5.0 6.8 12.8 10.4 7.6 10.9 5.5 3.1 3.1 3.6 4.4 4.0 4.1 3.8 3.4 3.5 3.4 3.7 3.9 3.7 3.4 3.0 2.7 2.3 2.3 2.4 2.5 2.4 2.1 1.8 1.7 1.6 1.7 1.5 1.3 1.4 1.5 1.4 1.6 2.0 2.0 1.8 1.8 1.9
2.9 6.4 13.7 12.4 9.1 6.1 2.7 2.4 3.7 4.5 5.1 4.0 3.7 2.9 2.6 2.6 2.3 2.9 3.1 3.3 3.5 3.2 3.0 2.6 2.6 2.7 2.4 2.4 2.3 1.8 1.6 1.6 1.7 1.3 1.2 1.3 1.6 1.8 1.7 2.2 2.4 2.1 2.6 3.0
2.6 5.3 12.4 12.9 11.2 6.7 3.7 1.9 2.3 3.7 6.1 3.7 3.2 3.3 2.9 2.4 3.8 3.9 3.1 3.3 2.8 2.6 2.6 2.6 2.7 2.4 2.2 2.3 2.1 2.2 2.2 2.0 2.1 2.2 1.9 1.4 1.8 2.3 2.5 3.0 3.2 2.9 3.3 3.8
5.1 8.3 11.6 10.5 10.6 5.7 3.4 1.8 1.6 5.4 8.2 3.6 3.2 3.4 3.4 4.4 5.4 4.4 3.3 3.1 2.8 2.3 2.4 2.2 2.2 2.4 2.5 2.6 2.1 2.3 2.4 3.0 3.8 3.1 2.7 2.5 2.3 2.6 3.3 3.3 3.3 2.9 2.9 2.7
5.0 6.9 7.5 8.1 11.1 7.6 3.1 2.6 5.3 6.8 4.2 3.6 3.2 3.3 3.6 3.8 3.5 3.1 2.8 2.9 2.8 2.5 2.2 2.4 2.6 2.6 3.3 3.0 3.5 3.2 3.9 4.3 3.9 3.8 4.1 4.1 3.5 3.2 3.2 3.7 3.6 3.3 2.9 3.0
5.1 6.6 7.5 7.9 8.1 6.2 4.6 5.1 5.4 4.6 4.3 3.8 3.8 3.6 3.5 3.5 3.5 3.2 2.9 2.8 2.9 2.7 2.6 2.6 2.8 2.8 2.9 3.1 3.5 3.9 4.2 4.0 4.0 3.9 4.1 3.9 3.3 3.0 3.2 3.5 3.3 2.9 2.7 2.7
4.4 3.7 5.2 6.1 5.4 4.5 3.9 3.3 3.1 3.3 4.0 3.9 3.7 3.6 3.3 3.6 3.4 3.3 2.9 2.9 3.0 3.1 3.0 2.9 2.9 3.2 3.1 3.1 3.2 3.9 3.6 3.6 3.7 3.6 3.4 3.2 3.2 3.2 3.0 2.9 3.0 3.3 3.7 3.5
4.3 4.1 5.3 5.6 4.4 3.3 2.8 2.9 3.1 2.9 2.6 2.6 2.5 2.7 3.0 3.1 3.2 3.2 3.2 3.2 3.2 3.5 3.4 3.3 3.5 3.7 3.5 3.5 3.7 3.5 3.2 3.5 4.0 3.6 3.3 3.4 3.6 3.8 3.6 3.0 3.4 3.5 3.9 4.5
4.5 5.6 6.9 6.5 4.3 4.8 4.0 3.0 2.7 2.7 2.6 2.4 2.3 2.3 2.4 2.7 3.1 3.0 3.2 3.4 3.4 3.5 3.4 3.2 3.3 3.7 3.9 3.7 3.9 3.9 3.5 3.6 4.2 4.4 3.7 3.9 4.2 4.2 4.2 3.7 3.5 3.4 3.9 3.6